Tracking 25703 objects as of 2-Jul-2022
HD Live streaming from Space Station
objects crossing your sky now

INTELSAT 10 (PAS 10)

Track INTELSAT 10 (PAS 10) now!
INTELSAT 10 (PAS 10) is classified as:


NORAD ID: 26766
Int'l Code: 2001-019A
Perigee: 35,777.3 km
Apogee: 35,809.3 km
Inclination: 5.6 °
Period: 1,436.1 minutes
Semi major axis: 42164 km
RCS: 12.6191 m2 (large)
Launch date: May 15, 2001
Source: United States (US)
Launch site: TYURATAM MISSILE AND SPACE COMPLEX (TTMTR)

Direct-to-home video channels; 24 C-band, 24 Ku-band; Asia, Africa, Middle East, Europe.
aabbcc
Your satellite tracking list
Your tracking list is empty




NASA's NSSDC Master Catalog

Two Line Element Set (TLE):
1 26766U 01019A   22183.52586316  .00000040  00000-0  00000-0 0  9994
2 26766   5.6123  73.2583 0003793   7.9421 206.4453  1.00273432 31122
Source of the keplerian elements: AFSPC